Location: Unspecified
(42.7170°S, 0.0000°E)
Time: 23:17:04
(UTC+00:00)

N. Korean satellite - Pass Details

Date: 25 May 2019
Orbit: 455 x 510 km, 97.2° (Epoch: 19 June)

Event Time Altitude Azimuth Distance (km) Brightness Sun altitude
Rises 04:55:00 0° 26° (NNE) 2,476 10.6 -25.2°
Reaches altitude 10° 04:57:03 10° 31° (NNE) 1,614 9.6 -24.8°
Maximum altitude 05:00:23 48° 106° (ESE) 627 7.4 -24.2°
Enters shadow 05:00:42 46° 125° (SE) 644 7.4 -24.1°
